Sunday, November 19, 2017, 11:08 PM EST
Back to Local

KPOU, Poughkeepsie Dutchess Cty

Location: Wappingers Falls, NY, United States Lat: 41.633
Local Time: 11:08 PM EST ( 4:08 GMT) Lon: -73.883
Time Zone: US/Eastern Elev: 167 ft

Show me the last for .
Show Decoded

2017-11-19 22:53 METAR KPOU 200353Z AUTO 24007KT 10SM SCT095 03/M02 A2973 RMK AO2 SLP065
                 T00281022 =
2017-11-19 21:53 METAR KPOU 200253Z AUTO 24008KT 10SM SCT065 SCT080 OVC095 04/M03 A2972 RMK AO2
                 SLP060 T00391033 51021 =
2017-11-19 20:53 METAR KPOU 200153Z AUTO 24008KT 10SM FEW070 OVC095 04/M04 A2971 RMK AO2 SLP057
                 T00391039 =
2017-11-19 19:53 METAR KPOU 200053Z 26009KT 10SM CLR 04/M05 A2968 RMK AO2 SLP048 T00441050 =
2017-11-19 18:53 METAR KPOU 192353Z 28010KT 10SM CLR 04/M06 A2965 RMK AO2 SLP038 T00441061 10078
                 20044 53021 =
2017-11-19 17:53 METAR KPOU 192253Z 29016G21KT 10SM BKN055 06/M05 A2963 RMK AO2 SLP031 T00561050
                 =
2017-11-19 16:53 METAR KPOU 192153Z 29008G19KT 10SM OVC049 06/M03 A2960 RMK AO2 SLP023 T00561033
                 =
2017-11-19 15:53 METAR KPOU 192053Z 29011G25KT 10SM OVC046 06/M04 A2959 RMK AO2 PK WND 28028/2018
                 SLP018 T00611039 53037 =
2017-11-19 14:53 METAR KPOU 191953Z 27012G26KT 10SM BKN044 06/M03 A2955 RMK AO2 PK WND 28027/1855
                 SLP004 T00611028 =
2017-11-19 13:53 METAR KPOU 191853Z 27016G28KT 10SM SCT044 07/M02 A2952 RMK AO2 PK WND 27034/1806
                 SLP993 T00671022 =
2017-11-19 12:53 METAR KPOU 191753Z 28020G30KT 10SM BKN055 08/M03 A2948 RMK AO2 PK WND 25033/1736
                 SLP981 T00781028 10144 20072 51042 =
2017-11-19 11:53 METAR KPOU 191653Z 27016G25KT 10SM FEW045 BKN055 08/M02 A2945 RMK AO2 PK WND
                 28030/1641 SLP972 T00781017 =
2017-11-19 10:53 METAR KPOU 191553Z 27020G31KT 10SM BKN045 08/M02 A2942 RMK AO2 PK WND 28035/1506
                 SLP959 T00781017 =
2017-11-19 09:53 METAR KPOU 191453Z 29020G36KT 10SM SCT044 BKN060 09/00 A2936 RMK AO2 PK WND
                 31036/1451 PRESRR SLP939 T00940000 53070 =
2017-11-19 08:53 METAR KPOU 191353Z 27020G28KT 10SM BKN033 BKN041 OVC055 10/03 A2928 RMK AO2 PK
                 WND 25034/1339 PRESRR SLP913 T01000028 =
2017-11-19 07:53 METAR KPOU 191253Z 24016G26KT 10SM FEW025 SCT035 BKN045 14/08 A2918 RMK AO2 PK
                 WND 25031/1242 SLP879 T01390083 =
2017-11-19 07:20 METAR KPOU 191220Z 21008KT 10SM BKN029 OVC035 14/11 A2916 RMK AO2 T01440111 =
2017-11-19 07:13 METAR KPOU 191213Z 22009G15KT 10SM SCT026 BKN031 OVC065 14/11 A2916 RMK AO2
                 T01440111 =
2017-11-19 06:53 METAR KPOU 191153Z 21008KT 10SM BKN029 OVC035 14/11 A2915 RMK AO2 RAE11 SLP868
                 P0001 60009 70026 T01440111 10144 20072 56009 =
2017-11-19 06:49 METAR KPOU 191149Z 20006KT 10SM BKN029 OVC035 14/11 A2915 RMK AO2 RAE11 P0001 =
2017-11-19 06:11 METAR KPOU 191111Z 20006KT 10SM SCT023 BKN034 OVC050 13/11 A2916 RMK AO2 RAE11
                 P0001 T01330111 =
2017-11-19 05:53 METAR KPOU 191053Z 17003KT 7SM -RA OVC023 12/11 A2916 RMK AO2 RAB45 PRESFR
                 SLP873 P0000 T01220106 =
2017-11-19 04:53 METAR KPOU 190953Z 18006KT 10SM BKN021 BKN075 OVC090 12/10 A2918 RMK AO2 RAE51
                 SLP878 P0002 T01220100 =
2017-11-19 04:13 METAR KPOU 190913Z 17007KT 8SM -RA FEW023 OVC095 12/09 A2919 RMK AO2 P0001
                 T01170094 =
2017-11-19 03:53 METAR KPOU 190853Z 14003KT 6SM -RA BR FEW018 BKN022 OVC095 11/09 A2920 RMK AO2
                 RAB0754 PRESFR SLP887 P0002 60006 T01110094 58045 =
2017-11-19 02:53 METAR KPOU 190753Z 17005KT 6SM BR OVC024 09/08 A2926 RMK AO2 RAB00E22B24E38
                 SLP906 P0002 T00940083 =
2017-11-19 02:23 METAR KPOU 190723Z 13003KT 3SM BR BKN024 OVC029 08/07 A2926 RMK AO2 RAB00E22
                 PRESFR P0001 T00780072 =
2017-11-19 01:53 METAR KPOU 190653Z 30003KT 2 1/2SM BR OVC024 07/07 A2930 RMK AO2 RAB13E43 SLP918
                 P0002 T00720067 =
2017-11-19 01:40 METAR KPOU 190640Z 00000KT 3SM -RA BR BKN024 BKN029 OVC060 07/06 A2930 RMK AO2
                 RAB13 P0002 T00720061 =
2017-11-19 01:32 METAR KPOU 190632Z 00000KT 2SM -RA BR SCT027 SCT038 OVC060 07/07 A2931 RMK AO2
                 RAB13 P0002 T00720067 =
2017-11-19 00:53 METAR KPOU 190553Z 00000KT 6SM BR FEW026 BKN060 OVC080 07/06 A2934 RMK AO2
                 RAB26E52 SLP932 P0000 60003 T00720061 10089 20061 56047 =
2017-11-18 23:53 METAR KPOU 190453Z 14004KT 10SM OVC100 08/06 A2939 RMK AO2 RAB21E49 SLP950 P0001
                 T00780061 400781067 =

Support USWX by starting your Amazon purchase here.